EW2328 Weather Reports


time (UTC)temp
C
wind
direction
speed
KPH
gust
KPH
rain 1hr
cm
rain 24hr
cm
rain mn
cm
humidity
%
barometer
mb
20260505041518 20 203 3.2 12.9 0.00 0.00 0.00 60 1006.7
20260505040519 20 225 1.6 6.4 0.00 0.00 0.00 61 1006.7
20260505035519 20 203 3.2 11.3 0.00 0.00 0.00 62 1006.7
20260505034519 20 225 1.6 8.0 0.00 0.00 0.00 62 1006.8
20260505033519 20 203 1.6 6.4 0.00 0.00 0.00 62 1006.7
20260505032519 20 225 1.6 6.4 0.00 0.00 0.00 62 1006.7
20260505031519 20 225 1.6 4.8 0.00 0.00 0.00 62 1006.9
20260505030519 20 225 1.6 6.4 0.00 0.00 0.00 62 1006.7
20260505025519 20 225 1.6 6.4 0.00 0.00 0.00 63 1006.7
20260505024519 20 225 1.6 4.8 0.00 0.00 0.00 63 1006.5
20260505023539 20 203 1.6 3.2 0.00 0.00 0.00 64 1006.4
20260505022519 20 203 1.6 11.3 0.00 0.00 0.00 63 1006.2
20260505021519 20 203 3.2 6.4 0.00 0.00 0.00 63 1006.0
20260505020519 20 203 3.2 4.8 0.00 0.00 0.00 63 1005.9
20260505015519 20 203 3.2 6.4 0.00 0.00 0.00 62 1005.6
20260505014519 20 203 1.6 4.8 0.00 0.00 0.00 61 1005.6
20260505013519 21 203 1.6 4.8 0.00 0.00 0.00 61 1005.6
20260505012539 21 203 1.6 3.2 0.00 0.00 0.00 60 1005.5
20260505011519 21 203 3.2 6.4 0.00 0.00 0.00 59 1005.3
20260505010519 21 203 1.6 4.8 0.00 0.00 0.00 59 1005.5
20260505005519 21 225 1.6 3.2 0.00 0.00 0.00 57 1005.4
20260505004519 21 203 1.6 4.8 0.00 0.00 0.00 56 1005.4
20260505003517 22 203 3.2 6.4 0.00 0.00 0.00 56 1005.3
20260505002539 22 225 1.6 9.7 0.00 0.00 0.00 55 1005.3
20260505001559 22 203 1.6 9.7 0.00 0.00 0.00 54 1005.4
20260505000519 22 225 1.6 3.2 0.00 0.00 0.00 53 1005.5
20260504235519 22 0.0 4.8 0.00 0.00 0.00 53 1005.6
20260504234519 22 0.0 6.4 0.00 0.00 0.00 53 1005.8
20260504233539 23 225 1.6 11.3 0.00 0.00 0.00 52 1005.8
20260504232518 23 225 3.2 8.0 0.00 0.00 0.00 50 1005.9
20260504231518 23 225 1.6 9.7 0.00 0.00 0.00 50 1005.8
20260504230519 23 203 1.6 9.7 0.00 0.00 0.00 52 1005.8
20260504225519 23 225 3.2 14.5 0.00 0.00 0.00 55 1006.0
20260504224519 22 203 1.6 4.8 0.00 0.00 0.00 58 1006.1
20260504223519 22 203 1.6 6.4 0.00 0.00 0.00 56 1006.3
20260504222519 23 225 1.6 6.4 0.00 0.00 0.00 54 1006.3
20260504221519 23 203 1.6 3.2 0.00 0.00 0.00 55 1006.3
20260504220518 23 0.0 0.0 0.00 0.00 0.00 56 1006.5
20260504215519 23 0.0 3.2 0.00 0.00 0.00 56 1006.5
20260504214539 23 0.0 3.2 0.00 0.00 0.00 55 1006.6
20260504213519 23 0.0 0.0 0.00 0.00 0.00 58 1007.0
20260504212518 23 0.0 1.6 0.00 0.00 0.00 56 1007.0
20260504211518 23 0.0 0.0 0.00 0.00 0.00 57 1007.0
20260504210538 23 0.0 4.8 0.00 0.00 0.00 59 1007.4
20260504205518 23 0.0 1.6 0.00 0.00 0.00 58 1007.3
20260504204518 22 0.0 6.4 0.00 0.00 0.00 59 1007.4
20260504203518 22 0.0 1.6 0.00 0.00 0.00 61 1007.6
20260504202518 22 0.0 3.2 0.00 0.00 0.00 60 1008.0
20260504201518 22 0.0 4.8 0.00 0.00 0.00 57 1007.9
20260504200518 22 0.0 3.2 0.00 0.00 0.00 61 1007.9
20260504195518 21 0.0 1.6 0.00 0.00 0.00 65 1007.9
20260504194519 21 203 1.6 6.4 0.00 0.00 0.00 66 1008.1
20260504193519 20 0.0 4.8 0.00 0.00 0.00 68 1008.3
20260504192518 19 0.0 3.2 0.00 0.00 0.00 71 1008.3
20260504191519 18 0.0 1.6 0.00 0.00 0.00 72 1008.4
20260504190519 18 0.0 1.6 0.00 0.00 0.00 72 1009.1
20260504185519 19 0.0 0.0 0.00 0.00 0.00 69 1009.2
20260504184518 20 0.0 3.2 0.00 0.00 0.00 64 1009.4
20260504183519 20 248 1.6 4.8 0.00 0.00 0.00 62 1009.3
20260504182518 21 293 1.6 3.2 0.00 0.00 0.00 61 1009.1
20260504181518 21 225 1.6 4.8 0.00 0.00 0.00 61 1008.7
20260504180539 21 248 1.6 4.8 0.00 0.00 0.00 61 1008.5
20260504175518 21 225 1.6 9.7 0.00 0.00 0.00 60 1008.2
20260504174519 21 203 6.4 19.3 0.00 0.00 0.00 62 1008.1
20260504173518 21 203 3.2 11.3 0.00 0.00 0.00 64 1008.1
20260504172518 21 203 1.6 4.8 0.00 0.00 0.00 62 1008.8
20260504171518 20 203 1.6 9.7 0.00 0.00 0.00 63 1008.6
20260504170518 20 203 3.2 12.9 0.00 0.00 0.00 63 1008.6
20260504150518 18 225 1.6 12.9 0.00 0.00 0.00 64 1009.3
20260504140519 16 203 1.6 9.7 0.00 0.00 0.00 68 1009.6
20260504130519 13 203 4.8 11.3 0.00 0.00 0.00 73 1009.7
20260504110518 11 203 3.2 6.4 0.00 0.00 0.00 72 1009.7
20260504100518 10 203 3.2 6.4 0.00 0.00 0.00 71 1010.2
20260504081518 11 203 4.8 8.0 0.00 0.00 0.00 67 1010.8
20260504080518 11 203 4.8 11.3 0.00 0.00 0.00 66 1010.9
20260504050538 11 203 3.2 9.7 0.00 0.00 0.00 65 1012.6
20260504045518 11 203 3.2 6.4 0.00 0.00 0.00 65 1012.7
20260504044518 11 203 4.8 9.7 0.00 0.00 0.00 65 1012.7
20260504043518 11 203 4.8 9.7 0.00 0.00 0.00 64 1012.8
20260504042518 11 203 3.2 9.7 0.00 0.00 0.00 65 1012.9